Volver al catálogo

STARLINK-36702

ActivoComunicacionesSSO
NORAD 67714·PAYLOAD·🇺🇸 United States

Lanzado Feb 7, 2026 desde Vandenberg Space Force Base

Loading…

Próximos Pases (próximas 24 horas)

TLE

ActualizadoSource: CelesTrak SupGP

Época: Sep 14, 2026, 23:08 UTC

1 67714C 26025X   26257.96437500 -.00036034  00000+0 -11184-2 0  2577
2 67714  97.2853   7.9198 0001038  91.3351 348.6206 15.33462879    17

Sigue STARLINK-36702 en tiempo real con AllMySat

Download on the App Store